Location: Ikejouine
(32.5142°N, 5.4699°W)
Time: 07:55:46
(UTC+00:00)

Cosmos 1758 Rocket - Visible Passes

Search period start: 11 August 2020 00:00
Search period end: 21 August 2020 00:00
Orbit: 601 x 637 km, 82.5° (Epoch: 10 August)

Date Brightness Start Highest point End Pass type
(mag) Time Alt. Az. Time Alt. Az. Time Alt. Az.
11 Aug 5.9 03:04:13 10° NNE 03:07:28 20° ENE 03:10:22 11° ESE visible
11 Aug 4.7 04:41:45 10° NW 04:45:12 24° W 04:47:26 16° SW visible
12 Aug 4.7 03:20:49 10° N 03:24:54 40° E 03:26:24 30° SE visible
12 Aug 5.4 05:00:44 10° WNW 05:02:19 12° W 05:03:29 11° WSW visible
13 Aug 3.4 03:37:55 10° N 03:42:15 86° E 03:42:36 75° SSE visible
14 Aug 6.5 02:20:14 10° ENE 02:21:27 11° ENE 02:21:49 11° E visible
14 Aug 4.0 03:55:23 10° NNW 03:58:55 42° WNW 03:58:55 42° WNW visible
15 Aug 5.9 02:35:37 10° NNE 02:38:14 21° ENE 02:38:14 21° ENE visible
15 Aug 5.2 04:13:19 10° NW 04:15:19 19° WNW 04:15:19 19° WNW visible
16 Aug 5.4 02:52:16 10° N 02:54:44 29° NNE 02:54:44 29° NNE visible
17 Aug 5.3 03:09:24 10° N 03:11:17 25° N 03:11:17 25° N visible
18 Aug 5.7 03:26:55 10° NNW 03:27:55 16° NNW 03:27:55 16° NNW visible
19 Aug 6.6 02:07:01 10° NNE 02:07:29 12° NNE 02:07:29 12° NNE visible
20 Aug 6.5 02:23:44 10° N 02:24:13 13° N 02:24:13 13° N visible
